Location: Newark
(44.2003°N, 3.2583°E)
Time: 14:48:07
(UTC+00:00)

SR - Pass Details

Date: 30 October 2019
Orbit: 574 x 882 km, 66.7° (Epoch: 14 November)

Event Time Altitude Azimuth Distance (km) Brightness Sun altitude
Rises 21:51:55 0° 280° (W) 3,233 - -53.1°
Reaches altitude 10° 21:55:59 10° 311° (NW) 2,385 - -53.6°
Maximum altitude 21:58:05 12° 334° (NNW) 2,276 - -53.9°
Drops below altitude 10° 22:00:14 10° 356° (N) 2,455 - -54.1°
Sets 22:04:36 0° 27° (NNE) 3,447 - -54.6°
